Home > Weather > Santo Domingo > Past weeks

Flag for Ecuador Weather for the Past 2 Weeks in Santo Domingo, Ecuador

Now
50 °F

Passing clouds.


Feels Like: 50 °F
Forecast: 75 / 87 °F
Wind: 2 mph from North

Location: Latacunga Airport

Current Time: Feb 13, 2016 at 4:51:58 AM

Latest Report: Feb 13, 2016 at 4:00 AM


Visibility: N/A

Pressure: 30.36 "Hg (28.38 "Hg at 560m altitude)

Humidity: 100%

Dew point: 50 °F

Location of Santo DomingoLocation

Historic Weather in Santo Domingo — Graph

°F

Santo Domingo Temperature Yesterday

Maximum temperature yesterday: 68 °F (at 12:00 PM)
Minimum temperature yesterday: 50 °F (at 4:00 AM)
Average temperature yesterday: 56 °F

High & Low Weather Summary for the Past Weeks

 TemperatureHumidityPressure
High73 °F (Feb 2, 4:00 PM)100% (Jan 29, 3:00 AM)30.51 "Hg (Jan 29, 3:00 AM)
Low39 °F (Feb 2, 7:00 AM)38% (Jan 31, 1:00 PM)29.59 "Hg (Feb 10, 7:00 PM)
Average57 °F86%30.40 "Hg
* Reported Jan 29 3:00 AM — Feb 13 3:00 AM, Santo Domingo, Weather by CustomWeather, © 2016

Note: Actual official high and low records may vary slightly from our data, if they occured in-between our weather recording intervals... More about our weather records

Advertising

Santo Domingo Weather History for the Previous 24 Hours

 ConditionsComfort  
Time TempWeatherWind HumidityBarometerVisibility
3:00 AM
Sat, Feb 13
54 °FPassing clouds.2 mph100%30.39 "HgN/A
2:00 AM54 °FPassing clouds.3 mph100%30.39 "HgN/A
1:00 AM54 °FPassing clouds.3 mph100%30.42 "HgN/A
12:00 AM54 °FPassing clouds.5 mph100%30.42 "HgN/A
10:00 PM
Fri, Feb 12
52 °FPassing clouds.8 mph100%30.45 "HgN/A
9:00 PM52 °FPassing clouds.5 mph100%30.42 "HgN/A
8:00 PM52 °FPassing clouds.8 mph100%30.39 "HgN/A
7:00 PM54 °FPassing clouds.14 mph100%30.39 "HgN/A
6:00 PM57 °FBroken clouds.20 mph88%30.36 "HgN/A
5:00 PM59 °FScattered clouds.20 mph82%30.33 "HgN/A
4:00 PM63 °FScattered clouds.20 mph68%30.33 "HgN/A
3:00 PM63 °FScattered showers. Partly sunny.23 mph73%30.36 "HgN/A
2:00 PM64 °FPartly sunny.22 mph68%30.36 "HgN/A
1:00 PM66 °FPartly sunny.24 mph60%30.39 "HgN/A
12:00 PM68 °FScattered clouds.23 mph60%30.42 "HgN/A
11:00 AM64 °FPartly sunny.18 mph73%30.45 "HgN/A
10:00 AM59 °FPartly sunny.12 mph88%30.48 "HgN/A
9:00 AM57 °FPartly sunny.14 mph94%30.48 "HgN/A
8:00 AM54 °FBroken clouds.8 mph100%30.45 "HgN/A
7:00 AM52 °FBroken clouds.6 mph100%30.42 "HgN/A
6:00 AM52 °FPassing clouds.9 mph100%30.42 "HgN/A
5:00 AM52 °FPassing clouds.7 mph100%30.39 "HgN/A
4:00 AM50 °FPassing clouds.7 mph100%30.39 "HgN/A
Weather by CustomWeather, © 2016

See weather overviewHow to use our weather pages